Погода в Чиуауа

Мексика     28°38′09″N   106°04′32″W
темп.,
°C
ветер,
м/с
пор.,
м/с
влажн.,
%
обл.,
%
осадки,
мм/ч
давл.,
гПа
погр.,
м
11 апреля, вс
вс1100:00+20зсз5818100 0.0 1008220
03:00+18зсз2224100 0.0 1008101
06:00+16зюз222810 0.0 100841
09:00+20зюз122284 0.0 1009354
12:00+25вюв131242 0.0 10082126
15:00+28вюв25863 0.0 10032565
18:00+30сз16820 0.0 10013638
21:00+24зсз131341 0.0 1004254
12 апреля, пн
пн1200:00+21зсз47168 0.0 1006161
03:00+19з221948 0.0 100641
06:00+17зюз222491 0.0 100836
09:00+21юз22180 0.0 1009506
12:00+26юз1380 0.0 10072299
15:00+30зюз3750 0.0 10033927
18:00+31зсз5751 0.0 10014825
21:00+24з51190 0.0 1005335
13 апреля, вт
вт1300:00+21зсз47150 0.0 1009184
03:00+18з11190 0.0 100952
06:00+16з11220 0.0 101034
09:00+21ю11160 0.0 1012463
12:00+25в24100 0.0 10092197
15:00+30ююв3860 0.0 10043840
18:00+31з67611 0.0 10024935
21:00+25з91411100 0.0 1007591
14 апреля, ср
ср1400:00+21з3516100 0.0 1009197
03:00+19св1118100 0.0 1009144
06:00+17сз222016 0.0 101128
09:00+21юв22162 0.0 1012495
12:00+27юз26814 0.0 10092485
15:00+32з786100 0.0 10044158
18:00+31з9878 0.0 10043527
21:00+25з81512100 0.0 1008458
15 апреля, чт
чт1500:00+21з2415100 0.0 1010174
03:00+19ююз121893 0.0 1009185
06:00+18юз1119100 0.0 101060
09:00+21юз111598 0.0 1011363
12:00+26зсз288100 0.0 10082233
15:00+31з8106100 0.0 10033707
18:00+29з9117100 0.0 10032278
21:00+24з91412100 0.0 1007664